User: anonymous   Login
Location: Kernascl�den
(48.0062°N, 3.3198°W)
Time: 03:53:42
(UTC+00:00)
Language:

Cosmos 773 Rocket - Orbit

View from above orbital plane
View from above orbital plane
View from above satellite
View from above satellite

Ground track
Ground track

The orbit data is extracted from the following two-line orbital elements,

1 08344U 75094B   21107.35263669 -.00000024  00000-0  90759-6 0  9998
2 08344  74.0573  65.3863 0022289 332.7818  27.2166 14.39177063386847
Epoch (UTC): 17 April 2021 08:27:47
Eccentricity: 0.0022289
inclination: 74.0573°
perigee height: 745 km
apogee height: 777 km
right ascension of ascending node: 65.3863°
argument of perigee: 332.7818°
revolutions per day: 14.39177063
mean anomaly at epoch: 27.2166°
orbit number at epoch: 38684

The dashed part of the orbit path shows where the satellite is in the earth's shadow,  

DLR